Regional Weather Roundup
Issued by NWS Charleston, SC

Current Version | Previous Version | Text Only | Print | Product List | Glossary Off
Versions: 1 2 3 4 5 6 7 8 9 10 11 12 13 14 15 16 17 18 19 20 21 22 23 24 25 26 27 28 29 30 31 32 33 34 35 36 37 38 39 40 41 42 43 44 45 46 47 48 49 50

000
ASUS42 KCHS 060113
RWRCHS

REGIONAL WEATHER ROUNDUP
NATIONAL WEATHER SERVICE CHARLESTON SC
900 PM EDT THU MAY 05 2016

NOTE: "FAIR" INDICATES FEW OR NO CLOUDS BELOW 12,000 FEET WITH NO
SIGNIFICANT WEATHER AND/OR OBSTRUCTIONS TO VISIBILITY.

NOT ALL STATIONS ARE QUALITY CONTROLLED. USE DATA WITH CAUTION...
ESPECIALLY DEWPOINT OBSERVATIONS.

SCZ027-030-031-034>040-042>050-060200-
...SOUTHEAST SOUTH CAROLINA...

CITY           SKY/WX    TMP DP  RH WIND       PRES   REMARKS
N CHARLESTON   PTCLDY    60  39  45 NW9       29.72R
WATERFRONT PRK   N/A     63  42  46 NW7       29.70R
MOUNT PLEASANT FAIR      63  39  42 W9G16     29.71R
JOHNS ISLAND   FAIR      59  43  55 W7        29.72R
PINOPOLIS        N/A     63  45  51 W15       29.62R
MONCKS CORNER  FAIR      55  34  44 CALM      29.71R
SUMMERVILLE    FAIR      55  43  62 W7        29.73R
BEAUFORT MCAS  PTCLDY    62  41  46 NW15      29.75R
BEAUFORT ARPT  MOCLDY    63  39  42 NW21G32   29.75R
HILTON HEAD IS CLEAR     64  39  39 NW18G28   29.76R
WALTERBORO     PTCLDY    61  41  48 W9        29.75R
ALLENDALE      FAIR      55  45  67 CALM      29.74R

...SOUTHERN MIDLANDS AND PEE DEE...

CITY           SKY/WX    TMP DP  RH WIND       PRES   REMARKS
GEORGETOWN     FAIR      50  46  87 W3        29.71R
KINGSTREE      FAIR      54  48  82 CALM      29.70R
ORANGEBURG     CLOUDY    57  42  57 W8        29.72R
BARNWELL       FAIR      55  46  71 W5        29.75R
AIKEN          FAIR      52  43  71 SW5       29.77R
MANNING        FAIR      55  41  58 CALM      29.70R
COLUMBIA       MOCLDY    60  43  53 W10       29.70R
SUMTER         CLOUDY    58  43  56 N12       29.68R
FLORENCE       PTCLDY    53  47  79 N6        29.70R
MYRTLE BEACH   CLEAR     57  45  62 NW10      29.69R
N MYRTLE BEACH MOCLDY    55  48  77 CALM      29.67R

$$

GAZ063-065-086>088-099>101-113>116-118-119-134>141-150-060200-
...SOUTHEAST GEORGIA...

CITY           SKY/WX    TMP DP  RH WIND       PRES   REMARKS
SAVANNAH ARPT  MOCLDY    62  38  40 NW13      29.76R
HUNTER AAF     MOCLDY    64  41  42 NW13      29.74R
FORT STEWART   MOCLDY    63  40  43 N15       29.75R
STATESBORO     CLOUDY    60  49  65 NW8       29.78R
SYLVANIA       PTCLDY    58  46  62 W7        29.76S
CLAXTON        LGT RAIN  60  46  59 NW14G20   29.79R

...CSRA...CENTRAL AND FAR SOUTHEAST GEORGIA...

CITY           SKY/WX    TMP DP  RH WIND       PRES   REMARKS
THOMSON        CLEAR     53  51  94 W3        29.81R
AUGUSTA-BUSH   CLEAR     54  45  71 W12       29.75R
AUGUSTA-DANIEL CLEAR     55  44  66 W3        29.75R
SWAINSBORO     CLOUDY    54  46  76 W3        29.79S
VIDALIA        CLOUDY    55  45  67 N7        29.79R
EASTMAN        MOCLDY    55  47  74 N6        29.84R
HAZLEHURST     MOCLDY    60  44  55 N14       29.79R
ALMA           CLEAR     63  40  42 W5        29.77R
WAYCROSS       CLEAR     62  41  46 CALM      29.78R
JESUP          FAIR      63  45  51 CALM      29.77R
BAXLEY         CLOUDY    63  43  48 N12       29.78R
BRUNSWICK      CLEAR     68  45  42 CALM      29.78R
SAINT SIMONS   CLEAR     66  40  38 W6        29.77R

$$

SCZ027-028-034-036>038-045-046-048>050-GAZ119-141-060200-
...LAKE AND SUPPLEMENTAL COASTAL OBSERVATIONS...

STATION/POSITION TIME  TEMP    WIND        PRES    WAVE   SWELL
                       AIR SEA DIR/SP/G            HT/PER HT/PER/DIR
                 (UTC) (F)     (DEG/KT/KT) (MB)    (FT/S) (FT/S/D)
WINYAH BAY       NOT AVBL
LAKE MURRAY      0000   61     290/  6/ 10 1005.1R
ACE BASIN NERRS  NOT AVBL
FORT PULASKI     0000      72  310/ 12/ 14 1006.5R
SAPELO ISLAND    0000   68     290/ 12     1007.0R

$$

ANZ835-935-AMZ111-154-330-350-352-354-370-450-454-472-060200-
...C-MAN AND BUOY OBSERVATIONS...

STATION/POSITION TIME  TEMP    WIND        PRES    WAVE   SWELL
                       AIR SEA DIR/SP/G            HT/PER HT/PER/DIR
                 (UTC) (F)     (DEG/KT/KT) (MB)    (FT/S) (FT/S/D)
BUOY 41004       0050   67 74  310/ 19/ 23 1004.7R   5/ 5
BUOY 41008       NOT AVBL
FOLLY BEACH CMAN 0000   65     300/ 11/ 18 1005.5R
CAPERS NEARSHORE 0008   66 70  320/ 16/ 21 1004.3R
FRIPP NEARSHORE  0008   68 69  310/ 19/ 25 1004.8R


STATION/POSITION TIME  TEMP    WIND        PRES    WAVE   SWELL
                       AIR SEA DIR/SP/G            HT/PER HT/PER/DIR
                 (UTC) (F)     (DEG/KT/KT) (MB)    (FT/S) (FT/S/D)
5E ST. MARYS GA  0021      71                N/A     3/ 3
FRYING PAN BUOY  0000   64 72  300/ 19/ 25 1003.0R
BUOY 41025       0050   57 76   10/ 21/ 25 1001.0R   5/ 8   2/360/16
CAPE LOOKOUT NC  0100   57     350/ 11/ 12 1002.6R
BUOY 41002       0050   71 74  260/ 21/ 27 1004.0R  10/ 8   2/320/15
BUOY 41010       0020   74 78  280/ 10/ 16 1006.8R
ST AUGUSTINE FL  0100   69 71  310/  8/ 10 1008.9R


$$




USA.gov is the U.S. government's official web portal to all federal, state and local government web resources and services.